Oelwein, IA

4:35 AM CST on February 25, 2017 (GMT -0600)
Oelwein Municipal

Weather History for KOLZ - February, 2013

Change the Weather History Date:

Sunday, February 17, 2013

  Actual Average Record
Temperature  
Mean Temperature 24 °F -  
Max Temperature 33 °F 31 °F 64 °F (1981)
Min Temperature 15 °F 13 °F -17 °F (1958)
Degree Days  
Heating Degree Days 41    
Moisture  
Dew Point 19 °F    
Average Humidity 74    
Maximum Humidity 86    
Minimum Humidity 65    
Precipitation  
Precipitation 0.00 in - - ()
Sea Level Pressure  
Sea Level Pressure 29.97 in    
Wind  
Wind Speed 11 mph (SE)    
Max Wind Speed 23 mph    
Max Gust Speed 30 mph    
Visibility 10 miles    
Events      
Averages and records for this station are not official NWS values.
T = Trace of Precipitation, MM = Missing Value Source: NWS Daily Summary

Daily Weather History Graph

Daily Weather History Graph

Search for Another Location

Airport or City:

Trip Planner

Search our weather history database for the weather conditions in past years. The results will help you decide how hot, cold, wet, or windy it might be!

Date:

Astronomy

Feb. 17, 2013 Rise Set
Actual Time 7:01 AM CST 5:42 PM CST
Civil Twilight 6:32 AM CST 6:11 PM CST
Nautical Twilight 5:59 AM CST 6:44 PM CST
Astronomical Twilight 5:27 AM CST 7:17 PM CST
Moon 10:44 AM CST (2/17) 12:49 AM CST (2/17)
Length of Visible Light 11h 38m
Length of Day
10h 41m
Waxing Crescent, 49% of the Moon is Illuminated
Feb 17
Waxing Crescent
Feb 17
First Quarter
Feb 25
Full
Mar 4
Last Quarter
Mar 11
New

Hourly Weather History & Observations

Time (CST) Temp. Windchill Dew Point Humidity Pressure Visibility Wind Dir Wind Speed Gust Speed Precip Events Conditions
12:15 AM 17.6 °F - 12.2 °F 79% 30.12 in 10.0 mi Calm Calm - N/A   Clear
12:35 AM 17.6 °F - 12.2 °F 79% 30.11 in 10.0 mi Calm Calm - N/A   Clear
12:55 AM 17.6 °F - 12.2 °F 79% 30.11 in 10.0 mi Calm Calm - N/A   Scattered Clouds
1:15 AM 17.6 °F - 12.2 °F 79% 30.11 in 10.0 mi Calm Calm - N/A   Overcast
1:35 AM 19.4 °F 9.5 °F 14.0 °F 80% 30.11 in 10.0 mi ESE 8.1 mph - N/A   Overcast
1:55 AM 19.4 °F 9.5 °F 12.2 °F 74% 30.11 in 10.0 mi SE 8.1 mph - N/A   Mostly Cloudy
2:15 AM 19.4 °F 8.6 °F 14.0 °F 80% 30.11 in 10.0 mi SE 9.2 mph - N/A   Mostly Cloudy
2:35 AM 19.4 °F 8.6 °F 14.0 °F 80% 30.11 in 10.0 mi SE 9.2 mph - N/A   Mostly Cloudy
2:55 AM 19.4 °F 8.6 °F 14.0 °F 80% 30.11 in 10.0 mi SE 9.2 mph - N/A   Mostly Cloudy
3:15 AM 19.4 °F 9.5 °F 12.2 °F 74% 30.11 in 10.0 mi SE 8.1 mph - N/A   Mostly Cloudy
3:35 AM 19.4 °F 10.4 °F 12.2 °F 74% 30.11 in 10.0 mi SE 6.9 mph - N/A   Scattered Clouds
4:15 AM 19.4 °F 9.5 °F 12.2 °F 74% 30.10 in 10.0 mi SE 8.1 mph - N/A   Scattered Clouds
4:35 AM 19.4 °F 8.6 °F 12.2 °F 74% 30.10 in 10.0 mi SE 9.2 mph - N/A   Scattered Clouds
4:55 AM 17.6 °F 5.7 °F 12.2 °F 79% 30.10 in 10.0 mi SE 10.4 mph - N/A   Clear
5:15 AM 17.6 °F 5.7 °F 12.2 °F 79% 30.10 in 10.0 mi SE 10.4 mph - N/A   Clear
5:35 AM 17.6 °F 7.3 °F 12.2 °F 79% 30.10 in 10.0 mi SE 8.1 mph - N/A   Clear
6:15 AM 15.8 °F 5.1 °F 12.2 °F 86% 30.09 in 10.0 mi SE 8.1 mph - N/A   Clear
6:35 AM 15.8 °F 5.1 °F 12.2 °F 86% 30.09 in 10.0 mi SE 8.1 mph - N/A   Clear
6:55 AM 15.8 °F 4.2 °F 12.2 °F 86% 30.08 in 10.0 mi SE 9.2 mph - N/A   Clear
7:15 AM 15.8 °F 4.2 °F 12.2 °F 86% 30.08 in 10.0 mi SE 9.2 mph - N/A   Clear
7:35 AM 17.6 °F 5.7 °F 12.2 °F 79% 30.07 in 10.0 mi SE 10.4 mph - N/A   Clear
7:55 AM 17.6 °F 5.0 °F 12.2 °F 79% 30.07 in 10.0 mi SE 11.5 mph - N/A   Clear
8:15 AM 19.4 °F 5.0 °F 14.0 °F 80% 30.07 in 10.0 mi SE 16.1 mph - N/A   Clear
8:35 AM 19.4 °F 5.5 °F 14.0 °F 80% 30.06 in 10.0 mi SE 15.0 mph - N/A   Clear
8:55 AM 21.2 °F 7.3 °F 14.0 °F 74% 30.06 in 10.0 mi SSE 16.1 mph - N/A   Clear
9:15 AM 21.2 °F 7.3 °F 15.8 °F 80% 30.06 in 10.0 mi SE 16.1 mph 19.6 mph N/A   Clear
9:35 AM 21.2 °F 6.8 °F 15.8 °F 80% 30.06 in 10.0 mi SSE 17.3 mph - N/A   Clear
9:55 AM 23.0 °F 10.6 °F 17.6 °F 80% 30.07 in 10.0 mi SSE 13.8 mph - N/A   Clear
10:15 AM 24.8 °F 11.1 °F 17.6 °F 74% 30.06 in 10.0 mi SSE 18.4 mph - N/A   Clear
10:35 AM 26.6 °F 14.7 °F 17.6 °F 69% 30.06 in 10.0 mi SSE 15.0 mph 21.9 mph N/A   Clear
10:55 AM 26.6 °F 13.8 °F 19.4 °F 74% 30.05 in 10.0 mi SSE 17.3 mph - N/A   Clear
11:15 AM 28.4 °F 16.2 °F 19.4 °F 69% 30.04 in 10.0 mi SE 17.3 mph - N/A   Clear
11:35 AM 28.4 °F 16.2 °F 19.4 °F 69% 30.04 in 10.0 mi SE 17.3 mph - N/A   Clear
11:55 AM 30.2 °F 17.8 °F 21.2 °F 69% 30.03 in 10.0 mi SE 19.6 mph - N/A   Clear
12:15 PM 30.2 °F 18.5 °F 21.2 °F 69% 30.01 in 10.0 mi SE 17.3 mph - N/A   Clear
12:35 PM 30.2 °F 18.1 °F 21.2 °F 69% 30.00 in 10.0 mi SE 18.4 mph 24.2 mph N/A   Clear
12:55 PM 32.0 °F 20.8 °F 23.0 °F 69% 29.98 in 10.0 mi SE 17.3 mph - N/A   Clear
1:15 PM 32.0 °F 20.8 °F 23.0 °F 69% 29.97 in 10.0 mi SSE 17.3 mph - N/A   Clear
1:35 PM 32.0 °F 20.1 °F 23.0 °F 69% 29.96 in 10.0 mi SE 19.6 mph 24.2 mph N/A   Clear
1:55 PM 32.0 °F 20.5 °F 23.0 °F 69% 29.95 in 10.0 mi SE 18.4 mph 25.3 mph N/A   Clear
2:15 PM 32.0 °F 20.5 °F 23.0 °F 69% 29.93 in 10.0 mi SE 18.4 mph 23.0 mph N/A   Clear
2:35 PM 32.0 °F 20.5 °F 23.0 °F 69% 29.93 in 10.0 mi SE 18.4 mph - N/A   Clear
2:55 PM 33.8 °F 22.2 °F 23.0 °F 65% 29.92 in 10.0 mi SE 20.7 mph 24.2 mph N/A   Clear
3:15 PM 33.8 °F 22.2 °F 23.0 °F 65% 29.90 in 10.0 mi SE 20.7 mph 28.8 mph N/A   Clear
3:35 PM 33.8 °F 21.9 °F 24.8 °F 70% 29.89 in 10.0 mi SE 21.9 mph 25.3 mph N/A   Clear
3:55 PM 33.8 °F 21.9 °F 24.8 °F 70% 29.88 in 10.0 mi SE 21.9 mph 28.8 mph N/A   Clear
4:15 PM 33.8 °F 22.5 °F 24.8 °F 70% 29.88 in 10.0 mi SE 19.6 mph 26.5 mph N/A   Clear
4:35 PM 33.8 °F 22.2 °F 24.8 °F 70% 29.88 in 10.0 mi SE 20.7 mph - N/A   Clear
4:55 PM 33.8 °F 23.2 °F 24.8 °F 70% 29.88 in 10.0 mi SE 17.3 mph - N/A   Clear
5:15 PM 32.0 °F 20.5 °F 24.8 °F 75% 29.87 in 10.0 mi SE 18.4 mph 24.2 mph N/A   Clear
5:35 PM 32.0 °F 20.5 °F 24.8 °F 75% 29.86 in 10.0 mi SE 18.4 mph 24.2 mph N/A   Clear
5:55 PM 32.0 °F 20.5 °F 24.8 °F 75% 29.86 in 10.0 mi SE 18.4 mph 23.0 mph N/A   Clear
6:15 PM 32.0 °F 19.2 °F 24.8 °F 75% 29.84 in 10.0 mi SE 23.0 mph 26.5 mph N/A   Clear
6:35 PM 32.0 °F 20.1 °F 24.8 °F 75% 29.84 in 10.0 mi SE 19.6 mph 25.3 mph N/A   Clear
6:55 PM 32.0 °F 20.8 °F 23.0 °F 69% 29.84 in 10.0 mi SE 17.3 mph - N/A   Clear
7:15 PM 32.0 °F 20.5 °F 23.0 °F 69% 29.83 in 10.0 mi SE 18.4 mph 25.3 mph N/A   Clear
7:35 PM 32.0 °F 19.5 °F 23.0 °F 69% 29.82 in 10.0 mi SE 21.9 mph 27.6 mph N/A   Clear
7:55 PM 32.0 °F 20.5 °F 23.0 °F 69% 29.82 in 10.0 mi SE 18.4 mph 26.5 mph N/A   Clear
8:15 PM 32.0 °F 19.5 °F 23.0 °F 69% 29.81 in 10.0 mi SE 21.9 mph - N/A   Clear
8:35 PM 32.0 °F 19.2 °F 23.0 °F 69% 29.79 in 10.0 mi SE 23.0 mph 27.6 mph N/A   Clear
9:15 PM 32.0 °F 19.5 °F 23.0 °F 69% 29.77 in 10.0 mi SE 21.9 mph 28.8 mph N/A   Clear
9:35 PM 32.0 °F 19.2 °F 23.0 °F 69% 29.77 in 10.0 mi SSE 23.0 mph 27.6 mph N/A   Clear
9:55 PM 32.0 °F 19.8 °F 23.0 °F 69% 29.76 in 10.0 mi SSE 20.7 mph 29.9 mph N/A   Clear
10:15 PM 32.0 °F 19.8 °F 23.0 °F 69% 29.75 in 10.0 mi SSE 20.7 mph 26.5 mph N/A   Clear
10:35 PM 32.0 °F 19.5 °F 23.0 °F 69% 29.75 in 10.0 mi SSE 21.9 mph 28.8 mph N/A   Clear
10:55 PM 32.0 °F 19.5 °F 23.0 °F 69% 29.74 in 10.0 mi SSE 21.9 mph 25.3 mph N/A   Clear
11:15 PM 32.0 °F 20.1 °F 24.8 °F 75% 29.73 in 10.0 mi SSE 19.6 mph - N/A   Clear
11:35 PM 32.0 °F 20.1 °F 24.8 °F 75% 29.72 in 10.0 mi SE 19.6 mph 26.5 mph N/A   Clear
11:55 PM 32.0 °F 20.5 °F 24.8 °F 75% 29.71 in 10.0 mi SE 18.4 mph 24.2 mph N/A   Clear